Showing default

IRIDIUM 113, 42803

Orbit data source: Space-Track

IRIDIUM 113, 42803 is a payload satellite owned by Iridium (US) in LEO that was launched on Sun, 25 Jun 2017 UTC via an FALCON 9 launch vehicle from the Air Force Western Test Range (AFWTR). Payload-class satellites include a variety of spacecraft equipped with specific instruments for various scientific and technological missions. These include communications satellites like Starlink; space stations such as the ISS; scientific satellites like the Hubble; Earth observation satellites from companies like Planet Labs, Umbra, and HawkEye 360; GPS; miniature CubeSats for education and research; and military/defense satellites.

Loading next visibility...
Identifier
42803, 2017-039A
Orbit
LEO
Country
Flag of USUS
Related business
Manufacturer
OATK SSG Gilbert
Mission
Operational Commercial Communications
Bus & Motor
ELITEBUS, Unknown motor
Mass
860 kg wet, 700 kg dry
Launch date (UTC)
2017-06-25 (9 years ago)
Launch vehicle
FALCON 9
Launch site
Air Force Western Test Range (AFWTR)
Object type
Payload
Rocket body
Debris
Shape & HBR
Trap Box + 2 Pan, 4.8 m
Radar Cross Section
10.154 m², Large (>1 m²)

Expand to show TLE details & history
Last TLE update: 5 hours ago

TLE from 5 hours ago
0 IRIDIUM 113
1 42803U 17039A   26125.47225623  .00000157  00000-0  49149-4 0  9998
2 42803  86.3976 340.0409 0002103  92.6955 267.4481 14.34219211465061
Epoch: 2026-05-05T11:20Z
TLE epoch observation values (Epoch: 2026-05-05T11:20:02.938Z)
Latitude
-0.00007°
Longitude
-53.31796°
Altitude
780.781 km
Speed
7.463 km/s
True Right ascension
22h 40m 09s
True Declination
0° 00' 00"
Sunlit
Object was in daylight at epoch
Visualization orbit readout
Latitude
Unknown
Longitude
Unknown
Altitude
Unknown
Speed
Unknown
Apparent Right ascension
Unknown
Apparent Declination
Unknown
Sunlit
N/A
Visualization observer readout
Local Sidereal Time
23:45:53
Azimuth
Unknown
Elevation
Unknown
Doppler factor
Unknown
Orbital elements
Apogee altitude
776.131 km
Perigee altitude
773.123 km
Semi-major axis
7,152.764 km
Eccentricity
0.00021
Inclination
86.3976°
RAAN
340.0409°
Arg. of periapsis
92.6955°
True anomaly
267.42403°
Mean anomaly
267.4481°
Eccentric anomaly
267.43606°
Mean motion
3.58783 °/min
Orbital period
100.34 mins
BSTAR
0.000049149
Loading maneuver chart data...
Computing Atmospheric mass density...
Loading historical data...
Loading historical data...
Loading historical data...
Loading historical data...
Loading historical data...
Loading historical data...
Loading historical data...

Documentation

Showing up to 5 results
|